Flag for U.S.A. Weather past 2 weeks in Springfield, Massachusetts, U.S.A.

Now
18 °F

Sunny.


Feels Like: 2 °F
Forecast: 7 / 19 °F
Wind: 20 mph from Northwest

Location: Barnes Municipal Airport

Current Time: Jan 31, 2015 at 5:14:27 PM

Latest Report: Jan 31, 2015 at 3:53 PM


Visibility: 10 mi

Pressure: 30.06 "Hg

Humidity: 35%

Dew point: -5 °F

Location of SpringfieldLocation

Historic Weather in Springfield — Graph

°F

Springfield temperature yesterday

Maximum temperature yesterday: 34 °F (at 11:53 AM)
Minimum temperature yesterday: 14 °F (at 11:53 PM)
Average temperature yesterday: 27 °F

Past Weeks' High & Low Weather Summary

 TemperatureHumidityPressure
High40 °F (Jan 19, 1:53 AM)93% (Jan 18, 9:01 PM)30.43 "Hg (Jan 18, 9:01 PM)
Low-4 °F (Jan 29, 3:53 AM)25% (Jan 17, 12:53 PM)29.24 "Hg (Jan 24, 5:03 PM)
Average24 °F61%29.97 "Hg
* Reported Jan 16 3:53 PM — Jan 31 3:53 PM, Springfield, Weather by CustomWeather, © 2014

Note: Actual official high and low records may vary slightly from our data, if they occured in-between our weather recording intervals... More about our weather records

Advertising

Springfield weather history for previous 24 hours

 ConditionsComfort  
Time TempWeatherWind HumidityBarometerVisibility
3:53 PM
Jan 31
18 °FSunny.20 mph35%30.06 "Hg10 mi
2:53 PM17 °FSunny.22 mph41%30.04 "Hg10 mi
1:53 PM17 °FSunny.23 mph37%30.03 "Hg10 mi
12:53 PM17 °FSunny.21 mph35%30.02 "Hg10 mi
11:53 AM15 °FSunny.22 mph36%30.02 "Hg10 mi
10:53 AM13 °FSunny.22 mph38%30.03 "Hg10 mi
9:53 AM10 °FSunny.21 mph43%30.03 "Hg10 mi
8:53 AM7 °FSunny.20 mph47%30.02 "Hg10 mi
7:53 AM5 °FSunny.16 mphN/A30.03 "Hg10 mi
6:53 AM5 °FClear.15 mph52%30.02 "Hg10 mi
5:53 AM5 °FClear.22 mph54%30.01 "Hg10 mi
4:53 AM6 °FClear.28 mph57%29.98 "Hg7 mi
3:53 AM8 °FClear.22 mph57%29.94 "Hg9 mi
2:53 AM9 °FClear.16 mph58%29.93 "Hg10 mi
1:53 AM11 °FClear.16 mph56%29.93 "Hg10 mi
12:53 AM13 °FClear.22 mph54%29.92 "Hg10 mi
11:53 PM
Jan 30
14 °FClear.17 mph56%29.92 "Hg10 mi
10:53 PM15 °FClear.15 mph58%29.93 "Hg10 mi
9:53 PM17 °FPassing clouds.22 mph56%29.93 "Hg10 mi
8:53 PM19 °FClear.22 mph59%29.91 "Hg10 mi
7:53 PM22 °FClear.15 mph60%29.88 "Hg10 mi
6:53 PM25 °FOvercast.16 mph63%29.87 "Hg10 mi
5:53 PM27 °FLight snow. Mostly cloudy.17 mph66%29.84 "Hg9 mi
Weather by CustomWeather, © 2014

See weather overviewHow to use our weather pages